User: anonymous   Login
Location: Unspecified
(0.0000°N, 0.0000°E)
Time: 19:14:33
(UTC+00:00)
Language:

STARLINK-33880 - Orbit

View from above orbital plane
View from above orbital plane
View from above satellite
View from above satellite

Ground track
Ground track

The orbit is defined by the following mean orbital elements,

1 63686U          26145.49259259 +.00000000 +00000-0 +53686-3 0 00006
2 63686  42.9972 317.3725 0000813 283.7718  76.3043 15.27592757    03
Epoch (UTC): 25 May 2026 11:49:20
Eccentricity: 0.0000813
inclination: 42.9972°
perigee height: 482 km
apogee height: 484 km
right ascension of ascending node: 317.3725°
argument of perigee: 283.7718°
revolutions per day: 15.27592757
mean anomaly at epoch: 76.3043°

The dashed part of the orbit path shows where the satellite is in the earth's shadow,  

DLR